Regional Weather Roundup
Issued by NWS

Home | Current Version | Previous Version | Graphics & Text | Print | Product List | Glossary On
Versions: 1 2 3 4 5 6 7 8 9 10 11 12 13 14 15 16 17 18 19 20 21 22 23 24 25 26 27 28 29 30 31 32 33 34 35 36 37 38 39 40 41 42 43 44 45 46 47 48 49 50
000
ASUS43 KFSD 290910
RWRSD

WEATHER ROUNDUP FOR SOUTH DAKOTA
NATIONAL WEATHER SERVICE SIOUX FALLS SD
400 AM CDT FRI MAY 29 2015

NOTE: "FAIR" INDICATES FEW OR NO CLOUDS BELOW 12,000 FEET WITH NO
SIGNIFICANT WEATHER AND/OR OBSTRUCTIONS TO VISIBILITY.


SDZ001>005-009-010-012>017-291000-
NORTHWEST AND NORTH CENTRAL SOUTH DAKOTA

CITY           SKY/WX    TMP DP  RH WIND       PRES   REMARKS
BUFFALO          N/A     54  51  90 N16G26    30.03R
FAITH            N/A     58  55  90 N17       30.00R
MOBRIDGE       CLOUDY    60  57  89 N18G32    29.92R
$$

SDZ012>016-024>037-041>051-057-063-072>074-291000-
SOUTHWEST AND SOUTH CENTRAL SOUTH DAKOTA

CITY           SKY/WX    TMP DP  RH WIND       PRES   REMARKS
RAPID CTY ARPT CLOUDY    56  52  86 NW21G30   30.04R
PIERRE         LGT RAIN  60  59  96 NW13      29.88R
CUSTER         CLOUDY    51  43  74 N3        30.10R
ELLSWORTH AFB  CLOUDY    56  53  90 N20G26    30.04
PHILIP         CLOUDY    58  54  86 NW10      29.96R
PINE RIDGE     CLOUDY    56  52  86 W5        30.03R
SPEARFISH      LGT RAIN  52  52 100 NW9       30.11S
WINNER         CLOUDY    61  56  83 W12       29.90R
$$

SDZ004>011-016>023-039-040-291000-
NORTHEAST SOUTH DAKOTA

CITY           SKY/WX    TMP DP  RH WIND       PRES   REMARKS
ABERDEEN       CLOUDY    61  60  97 NW7       29.87R
WATERTOWN      CLOUDY    60  57  89 SE5       29.85R
BROOKINGS      CLOUDY    61  57  88 E9G18     29.87F
SISSETON         N/A     60  60 100 W5        29.84R
$$

SDZ017-020-022-023-036>040-048>070-291000-
SOUTHEAST SOUTH DAKOTA

CITY           SKY/WX    TMP DP  RH WIND       PRES   REMARKS
SIOUX FALLS    CLOUDY    64  63  96 S3        29.83F
HURON            N/A    N/A N/A N/A MISG      29.82S
CHAMBERLAIN    CLOUDY    58  57  95 NW8       29.86F
MITCHELL       CLOUDY    63  59  87 N13       29.79F
YANKTON        CLOUDY    64  63  94 S5        29.83F
$$

ABBREVIATIONS USED IN REMARKS
   TC - TEMPERATURE IN CELSIUS
  WCI - WIND CHILL INDEX
   HX - HEAT INDEX
  VSB - VISIBILITY



USA.gov is the U.S. government's official web portal to all federal, state and local government web resources and services.